Regional Weather Roundup
Issued by NWS Upton, NY

Current Version | Previous Version | Text Only | Print | Product List | Glossary On
Versions: 1 2 3 4 5 6 7 8 9 10 11 12 13 14 15 16 17 18 19 20 21 22 23 24 25 26 27 28 29 30 31 32 33 34 35 36 37 38 39 40 41 42 43 44 45 46 47 48 49 50
000
ASUS41 KOKX 011305
RWROKX

REGIONAL WEATHER ROUNDUP
NATIONAL WEATHER SERVICE NEW YORK NY
800 AM EST SUN MAR 01 2015

NOTE: "FAIR" INDICATES FEW OR NO CLOUDS BELOW 12,000 FEET WITH NO
SIGNIFICANT WEATHER AND/OR OBSTRUCTIONS TO VISIBILITY.

NYZ071-072-176-178-NJZ106-104-011400-
NEW YORK CITY METRO AREA


CITY           SKY/WX    TMP DP  RH WIND       PRES   REMARKS
CENTRAL PARK   CLOUDY    28   4  35 CALM      30.66F
LAGUARDIA APRT PTSUNNY   26  16  65 NE8       30.66F WCI  18
KENNEDY INTL   CLOUDY    28   5  37 CALM      30.68F
NEWARK/LIBERTY CLOUDY    24   7  48 CALM      30.67R
BRNX BOT. GARD   N/A    N/A N/A N/A E2        30.67S
TETERBORO      CLOUDY    22   9  57 CALM      30.65F
$$

NYZ177-179-078>081-011400-
LONG ISLAND NEW YORK

CITY           SKY/WX    TMP DP  RH WIND       PRES   REMARKS
FARMINGDALE    CLOUDY    22  13  68 CALM      30.66F
ISLIP          CLOUDY    22  15  75 E3        30.65F
SHIRLEY        CLOUDY    19  14  81 CALM      30.69F
WESTHAMPTON    CLOUDY    16  13  88 CALM      30.69F
MONTAUK POINT    N/A     26  24  92 CALM      30.69F
$$

NYZ052-065-067-011400-
HUDSON VALLEY

CITY           SKY/WX    TMP DP  RH WIND       PRES   REMARKS
WHITE PLAINS   CLOUDY    21   6  52 CALM      30.62F
NEWBURGH       PTSUNNY   14   9  79 VRB5      30.62F WCI   6
MONTGOMERY     LGT SNOW  11   4  73 CALM      30.61F
POUGHKEEPSIE   CLOUDY    12   3  67 CALM      30.64F
ALBANY         CLOUDY    11   3  70 CALM      30.63F
$$

NJZ001-105-106-008-010-013-015-019>022-104-011400-
NEW JERSEY

CITY           SKY/WX    TMP DP  RH WIND       PRES   REMARKS
NEWARK/LIBERTY CLOUDY    24   7  48 CALM      30.67R
TETERBORO      CLOUDY    22   9  57 CALM      30.65F
CALDWELL       CLOUDY    17   6  62 CALM      30.66R
MORRISTOWN     SUNNY     16   9  73 CALM      30.66S
SOMERVILLE     CLOUDY    17   6  62 CALM      30.64S
SUSSEX         MIX PCPN  12   3  67 CALM      30.60F
ANDOVER          N/A     15   6  67 CALM      30.60F
TRENTON        CLOUDY    21   9  59 CALM      30.64F
MILLVILLE      CLOUDY   N/A N/A N/A CALM      30.68R
ATLANTIC CITY  CLOUDY    22  12  65 CALM      30.68R
WRIGHTSTOWN    PTSUNNY   20  11  69 S1        30.65R
TOMS RIVER     CLOUDY    19  10  68 CALM      30.67S
BELMAR         CLOUDY    25   9  50 CALM      30.66R
$$

PAZ047>061-062-071-011400-
EASTERN PENNSYLVANIA

CITY           SKY/WX    TMP DP  RH WIND       PRES   REMARKS
PHILADELPHIA   CLOUDY    25  12  58 S6        30.69R WCI  18
ALLENTOWN      CLOUDY    19   4  51 E3        30.61F
SCRANTON       FOG       15  11  83 CALM      30.53F VSB 3/4
$$

CTZ002-004>006-009-010-012-RIZ004-006-007-MAZ004-011-015-011400-
SOUTHERN NEW ENGLAND
 IN CT

CITY           SKY/WX    TMP DP  RH WIND       PRES   REMARKS
BRADLEY INTL   CLOUDY    13   2  61 CALM      30.67S
HARTFORD       CLOUDY    13   7  77 CALM      30.70S
DANBURY        CLOUDY    14   3  61 CALM      30.64F
WTRBRY/OXFORD  CLOUDY    18   0  45 CALM      30.62F
BRIDGEPORT     CLOUDY    19   9  65 N3        30.68F
MERIDEN        CLOUDY    14   4  64 CALM      30.68F
NEW HAVEN      CLOUDY    19  10  68 CALM      30.68S
CHESTER        PTSUNNY   23  12  63 CALM      30.66S
GROTON         CLOUDY    16   7  67 N3        30.69F
WILLIMANTIC    CLOUDY     6   0  76 CALM      30.68F

 IN RI

CITY           SKY/WX    TMP DP  RH WIND       PRES   REMARKS
PROVIDENCE     CLOUDY    16   4  59 CALM      30.69S
BLOCK ISLAND   MOSUNNY   27  12  54 CALM      30.66F
WESTERLY       CLOUDY    13   6  74 CALM      30.69F

 IN MA

CITY           SKY/WX    TMP DP  RH WIND       PRES   REMARKS
BOSTON         CLOUDY    19   8  62 CALM      30.68S
WORCESTER      CLOUDY    17   3  54 W6        30.58F WCI   9
WESTFIELD      CLOUDY    10   0  63 CALM      30.66F
PROVINCETOWN   MOSUNNY   25  18  74 W9        30.69R WCI  15
NANTUCKET      SUNNY     23  18  81 SW3       30.69S
$$

ANZ330-335-338-340-345-350-353-355-011400-
COASTAL MARINE OBSERVATIONS


STATION/POSITION TIME  SKY/WX   TEMP    WIND        PRES    VSBY  WAVE
                                AIR SEA DIR/SP/G                  HT/PER
                 (UTC)          (F)     (DEG/KT/KT) (MB)    (MI)  (FT/S)
NY HARB ENTRANCE 1300            29 37  160/  4/  4 1038.5          2/10
4S FIRE IS       NOT AVBL
20S FIRE ISLAND  1200               37              1039.6          1/ 8
23SW MTP         1300                                 N/A           2/ 8
HUDSON CANYON    NOT AVBL
EXECUTION ROCKS  NOT AVBL
WESTERN LI SOUND NOT AVBL
CENTRAL LI SOUND NOT AVBL
EASTERN LI SOUND NOT AVBL
ROBBINS REEF     1300                      CALM     1037.1
$$


>>>>>>>>>>>>>>>>>>>>>>>>>>>> KEY <<<<<<<<<<<<<<<<<<<<<<<<<<<
>                                                          <
>     SKY/WX - SKY CONDITION/PRESENT WEATHER               <
>     TMP    - TEMPERATURE IN FAHRENHEIT                   <
>     DP     - DEWPOINT IN FAHRENHEIT                      <
>     RH     - RELATIVE HUMIDITY IN PERCENT                <
>     WIND   - DIRECTION AND SPEED IN MPH                  <
>     PRES   - MEAN SEA LEVEL PRESSURE IN INCHES OF HG     <
>     WCI    - WIND CHILL INDEX                            <
>     VSB    - VISIBILITY IN MILES                         <
>     HX     - HEAT INDEX                                  <
>     TC     - TEMPERATURE IN CELSIUS                      <
>     VRB    - VARIABLE WIND DIRECTION                     <
>                                                          <
>>>>>>>>>>>>>>>>>>>>>>>>>>>> KEY <<<<<<<<<<<<<<<<<<<<<<<<<<<





USA.gov is the U.S. government's official web portal to all federal, state and local government web resources and services.